AU224 Weather Reports


time (UTC)temp
C
wind
direction
speed
KPH
gust
KPH
rain 1hr
cm
rain 24hr
cm
rain mn
cm
humidity
%
barometer
mb
20260906003056 11 0 0.0 0.0 0.00 0.36 0.00 80 1023.6
20260906001553 11 0 0.0 0.0 0.00 0.36 0.00 80 1023.6
20260906000100 12 0 0.0 0.0 0.00 0.36 0.00 80 1023.6
20260905234558 12 0 0.0 0.0 0.00 0.36 0.00 80 1023.5
20260905233051 12 0 0.0 0.0 0.00 0.36 0.00 80 1023.6
20260905231555 12 0 0.0 0.0 0.00 0.36 0.00 80 1023.6
20260905230051 12 0 0.0 0.0 0.00 0.36 0.00 80 1023.6
20260905224553 12 0 0.0 0.0 0.00 0.36 0.00 79 1023.6
20260905223052 13 0 0.0 0.0 0.00 0.36 0.00 79 1023.6
20260905221555 13 0 0.0 0.0 0.00 0.36 0.00 79 1023.5
20260905214558 13 0 0.0 0.0 0.00 0.36 0.36 78 1023.5
20260905213052 14 0 0.0 0.0 0.00 0.36 0.36 78 1023.3
20260905211553 14 0 0.0 0.0 0.00 0.36 0.36 77 1023.4
20260905210107 15 0 0.0 0.0 0.00 0.36 0.36 76 1023.2
20260905204550 15 0 0.0 0.0 0.00 0.36 0.36 76 1023.1
20260905203107 15 0 0.0 0.0 0.00 0.36 0.36 75 1023.1
20260905201552 16 0 0.0 0.0 0.00 0.36 0.36 75 1023.1
20260905200051 16 0 0.0 0.0 0.00 0.36 0.36 74 1022.9
20260905194548 16 0 0.0 0.0 0.00 0.36 0.36 74 1023.0
20260905193055 16 0 0.0 3.2 0.00 0.36 0.36 74 1022.7
20260905191550 17 261 3.2 9.7 0.00 0.36 0.36 73 1022.5
20260905190052 17 0 0.0 0.0 0.00 0.36 0.36 71 1022.4
20260905184602 17 0 0.0 4.8 0.00 0.36 0.36 69 1022.2
20260905183055 18 0 0.0 3.2 0.00 0.36 0.36 69 1021.9
20260905181549 18 0 0.0 0.0 0.00 0.36 0.36 67 1021.7
20260905180100 18 0 0.0 1.6 0.00 0.36 0.36 66 1021.2
20260905174555 18 0 0.0 3.2 0.00 0.36 0.36 65 1020.9
20260905173048 19 0 0.0 11.3 0.00 0.36 0.36 64 1020.8
20260905171624 19 0 0.0 11.3 0.00 0.36 0.36 63 1020.6
20260905164552 20 281 0.0 16.1 0.00 0.36 0.36 61 1020.6
20260905163058 21 229 3.2 17.7 0.00 0.36 0.36 63 1020.6
20260905161554 21 279 4.8 24.1 0.00 0.36 0.36 64 1020.3
20260905154630 22 0 1.6 14.5 0.00 0.33 0.33 62 1020.1
20260905153054 22 165 1.6 22.5 0.00 0.33 0.33 59 1020.1
20260905151551 22 360 0.0 16.1 0.00 0.33 0.33 58 1020.2
20260905150059 22 0 4.8 19.3 0.00 0.33 0.33 56 1020.3
20260905144559 22 0 1.6 22.5 0.00 0.33 0.33 55 1020.4
20260905143102 22 242 14.5 16.1 0.00 0.33 0.33 55 1020.5
20260905141558 22 271 4.8 22.5 0.00 0.33 0.33 58 1020.5
20260905140100 22 237 11.3 24.1 0.00 0.33 0.33 57 1020.5
20260905134601 21 360 8.0 25.7 0.00 0.33 0.33 55 1020.6
20260905133102 21 360 16.1 0.0 0.00 0.33 0.33 55 1020.6
20260905131557 21 360 8.0 20.9 0.00 0.33 0.33 57 1020.7
20260905130053 21 0 9.7 24.1 0.00 0.33 0.33 62 1020.6
20260905124550 20 360 6.4 20.9 0.00 0.33 0.33 64 1020.6
20260905123048 20 276 14.5 22.5 0.00 0.33 0.33 66 1020.7
20260905121555 20 360 9.7 24.1 0.00 0.33 0.33 69 1020.7
20260905120055 19 293 0.0 17.7 0.00 0.33 0.33 72 1020.6
20260905114559 18 360 8.0 20.9 0.00 0.33 0.33 77 1020.9
20260905113053 17 360 1.6 0.0 0.00 0.33 0.33 80 1020.8
20260905111622 17 0 3.2 6.4 0.00 0.33 0.33 81 1020.9
20260905110056 16 0 0.0 9.7 0.00 0.33 0.33 83 1020.9
20260905104607 16 0 0.0 4.8 0.00 0.33 0.33 83 1020.7
20260905103055 15 0 0.0 3.2 0.08 0.33 0.33 84 1020.7
20260905101554 15 0 0.0 6.4 0.15 0.30 0.30 83 1020.6
20260905100052 15 0 0.0 3.2 0.15 0.30 0.30 85 1020.6
20260905094652 15 0 0.0 11.3 0.18 0.30 0.30 84 1020.5
20260905093103 15 0 0.0 6.4 0.13 0.25 0.25 84 1020.6
20260905091557 14 0 0.0 6.4 0.05 0.15 0.15 83 1020.7
20260905090057 14 0 0.0 8.0 0.08 0.15 0.15 83 1020.4
20260905084603 14 165 1.6 8.0 0.08 0.13 0.13 83 1020.1
20260905083049 14 0 0.0 12.9 0.08 0.10 0.10 82 1020.7
20260905081549 15 0 0.0 9.7 0.05 0.08 0.08 80 1020.5
20260905080110 15 0 0.0 4.8 0.00 0.05 0.05 77 1020.1
20260905074601 15 0 0.0 0.0 0.00 0.03 0.03 75 1020.0
20260905073107 16 0 0.0 0.0 0.00 0.03 0.03 76 1019.7
20260905071553 15 0 0.0 0.0 0.03 0.03 0.03 78 1019.6
20260905070100 15 0 0.0 0.0 0.03 0.03 0.03 77 1019.6
20260905064554 15 0 0.0 0.0 0.00 0.00 0.00 75 1019.6
20260905063050 15 0 0.0 0.0 0.00 0.00 0.00 74 1019.5
20260905061602 15 0 0.0 0.0 0.00 0.00 0.00 72 1019.2
20260905060104 15 0 0.0 0.0 0.00 0.00 0.00 72 1018.6
20260905054605 16 0 0.0 0.0 0.00 0.00 0.00 70 1018.5
20260905053054 16 0 0.0 0.0 0.00 0.00 0.00 69 1018.9
20260905051604 16 0 0.0 0.0 0.00 0.00 0.00 67 1018.8
20260905050057 16 0 0.0 1.6 0.00 0.00 0.00 64 1019.1
20260905044557 16 360 3.2 14.5 0.00 0.00 0.00 62 1018.8
20260905043055 17 360 3.2 20.9 0.00 0.00 0.00 63 1018.3
20260905041556 17 41 1.6 9.7 0.00 0.00 0.00 65 1018.1
20260905040107 17 0 1.6 16.1 0.00 0.00 0.00 65 1017.8
20260905034554 18 40 1.6 16.1 0.00 0.00 0.00 67 1017.6
20260905033104 18 360 1.6 17.7 0.00 0.00 0.00 67 1017.4
20260905031549 18 0 3.2 16.1 0.00 0.00 0.00 68 1016.8
20260905030108 18 0 0.0 0.0 0.00 0.00 0.00 67 1016.6
20260905024603 18 0 0.0 0.0 0.00 0.00 0.00 66 1016.2
20260905023053 19 0 0.0 0.0 0.00 0.00 0.00 65 1015.8
20260905021548 19 0 0.0 0.0 0.00 0.00 0.00 63 1015.8
20260905020056 20 0 0.0 0.0 0.00 0.00 0.00 63 1015.9
20260905014553 20 0 0.0 0.0 0.00 0.00 0.00 62 1015.6
20260905013117 20 0 0.0 0.0 0.00 0.00 0.00 61 1015.4
20260905011606 21 0 0.0 9.7 0.00 0.00 0.00 61 1015.5
20260905010059 21 250 0.0 9.7 0.00 0.00 0.00 60 1015.4
20260905004607 21 0 0.0 0.0 0.00 0.00 0.00 59 1015.4